Weather History for KOXC - March, 2012

Change the Weather History Date:

Saturday, March 10, 2012

  Actual Average Record
Temperature  
Mean Temperature 30 °F -  
Max Temperature 37 °F 39 °F 66 °F (2006)
Min Temperature 24 °F 23 °F 6 °F (2005)
Degree Days  
Heating Degree Days 34    
Moisture  
Dew Point 10 °F    
Average Humidity 44    
Maximum Humidity 59    
Minimum Humidity 33    
Precipitation  
Precipitation 0.00 in - - ()
Sea Level Pressure  
Sea Level Pressure 30.39 in    
Wind  
Wind Speed 7 mph (NW)    
Max Wind Speed 14 mph    
Max Gust Speed 29 mph    
Visibility 10 miles    
Events      
Averages and records for this station are not official NWS values.
T = Trace of Precipitation, MM = Missing Value Source: NWS Daily Summary

Daily Weather History Graph

Daily Weather History Graph

Search for Another Location

Airport or City:

Trip Planner

Search our weather history database for the weather conditions in past years. The results will help you decide how hot, cold, wet, or windy it might be!

Date:

Astronomy

Mar. 10, 2012 Rise Set
Actual Time 6:11 AM EST 5:54 PM EST
Civil Twilight 5:44 AM EST 6:21 PM EST
Nautical Twilight 5:12 AM EST 6:53 PM EST
Astronomical Twilight 4:39 AM EST 7:26 PM EST
Moon 9:06 PM EST (3/10) 7:02 AM EST (3/10)
Length of Visible Light 12h 37m
Length of Day
11h 42m
Waning Gibbous, 93% of the Moon is Illuminated
Mar 10
Waning Gibbous
Mar 14
Last Quarter
Mar 22
New
Mar 30
First Quarter
Apr 6
Full

Hourly Weather History & Observations

Time (EST) Temp. Windchill Dew Point Humidity Pressure Visibility Wind Dir Wind Speed Gust Speed Precip Events Conditions
12:15 AM 30.2 °F 21.9 °F 14.0 °F 51% 30.22 in 10.0 mi NW 9.2 mph - N/A   Partly Cloudy
12:35 AM 30.2 °F 20.8 °F 12.2 °F 47% 30.23 in 10.0 mi WNW 11.5 mph 20.7 mph N/A   Clear
12:55 AM 30.2 °F 22.6 °F 12.2 °F 47% 30.24 in 10.0 mi WNW 8.1 mph - N/A   Mostly Cloudy
1:35 AM 28.4 °F 21.2 °F 8.6 °F 43% 30.26 in 10.0 mi WNW 6.9 mph - N/A   Overcast
1:55 AM 28.4 °F 19.1 °F 6.8 °F 40% 30.26 in 10.0 mi NW 10.4 mph 17.3 mph N/A   Mostly Cloudy
2:15 AM 28.4 °F 19.1 °F 5.0 °F 37% 30.26 in 10.0 mi WNW 10.4 mph 16.1 mph N/A   Scattered Clouds
2:35 AM 28.4 °F 19.7 °F 5.0 °F 37% 30.27 in 10.0 mi WNW 9.2 mph - N/A   Clear
2:55 AM 28.4 °F 20.4 °F 6.8 °F 40% 30.27 in 10.0 mi WNW 8.1 mph - N/A   Clear
3:15 AM 26.6 °F 21.2 °F 6.8 °F 43% 30.27 in 10.0 mi WNW 4.6 mph - N/A   Clear
3:36 AM 26.6 °F 19.1 °F 5.0 °F 40% 30.27 in 10.0 mi WNW 6.9 mph - N/A   Clear
4:15 AM 26.6 °F 17.5 °F 3.2 °F 37% 30.29 in 10.0 mi NW 9.2 mph - N/A   Clear
4:35 AM 26.6 °F 21.2 °F 5.0 °F 40% 30.30 in 10.0 mi NW 4.6 mph - N/A   Scattered Clouds
4:55 AM 26.6 °F 17.5 °F 5.0 °F 40% 30.32 in 10.0 mi NW 9.2 mph 17.3 mph N/A   Partly Cloudy
5:15 AM 26.6 °F 18.2 °F 6.8 °F 43% 30.33 in 10.0 mi NW 8.1 mph 17.3 mph N/A   Clear
5:35 AM 26.6 °F 19.1 °F 6.8 °F 43% 30.34 in 10.0 mi NW 6.9 mph 16.1 mph N/A   Clear
5:45 AM 24.8 °F 17.9 °F 6.8 °F 46% 30.34 in 10.0 mi NNW 5.8 mph 18.4 mph N/A   Partly Cloudy
7:45 AM 26.6 °F 15.2 °F 8.6 °F 47% 30.38 in 10.0 mi NW 13.8 mph 28.8 mph N/A   Partly Cloudy
8:45 AM 28.4 °F 18.5 °F 10.4 °F 47% 30.43 in 10.0 mi NNW 11.5 mph 19.6 mph N/A   Scattered Clouds
9:45 AM 30.2 °F 20.8 °F 12.2 °F 47% 30.44 in 10.0 mi NNW 11.5 mph 18.4 mph N/A   Partly Cloudy
10:45 AM 32.0 °F 26.4 °F 12.2 °F 44% 30.45 in 10.0 mi NNW 5.8 mph 17.3 mph N/A   Partly Cloudy
11:55 AM 33.8 °F 25.3 °F 14.0 °F 44% 30.47 in 10.0 mi North 11.5 mph 17.3 mph N/A   Partly Cloudy
1:45 PM 37.4 °F 30.8 °F 14.0 °F 38% 30.46 in 10.0 mi North 9.2 mph 16.1 mph N/A   Partly Cloudy
2:45 PM 37.4 °F 29.8 °F 12.2 °F 36% 30.45 in 10.0 mi North 11.5 mph - N/A   Partly Cloudy
3:45 PM 37.4 °F 32.8 °F 12.2 °F 36% 30.46 in 10.0 mi NNE 5.8 mph - N/A   Partly Cloudy
4:45 PM 37.4 °F - 12.2 °F 36% 30.46 in 10.0 mi Calm Calm - N/A   Clear
5:45 PM 37.4 °F - 10.4 °F 33% 30.49 in 10.0 mi Calm Calm - N/A   Clear
6:45 PM 35.6 °F - 10.4 °F 35% 30.50 in 10.0 mi Calm Calm - N/A   Clear
7:45 PM 30.2 °F - 10.4 °F 44% 30.52 in 10.0 mi Calm Calm - N/A   Clear
9:15 PM 28.4 °F - 14.0 °F 55% 30.52 in 10.0 mi Calm Calm - N/A   Clear
9:35 PM 26.6 °F - 12.2 °F 55% 30.52 in 10.0 mi Calm Calm - N/A   Clear
9:55 PM 28.4 °F - 15.8 °F 59% 30.52 in 10.0 mi Calm Calm - N/A   Clear
10:15 PM 28.4 °F - 15.8 °F 59% 30.53 in 10.0 mi Calm Calm - N/A   Clear
10:55 PM 28.4 °F - 12.2 °F 51% 30.52 in 10.0 mi Calm Calm - N/A   Clear
11:15 PM 30.2 °F - 12.2 °F 47% 30.52 in 10.0 mi Calm Calm - N/A   Clear
11:35 PM 28.4 °F 24.6 °F 12.2 °F 51% 30.51 in 10.0 mi SSW 3.5 mph - N/A   Clear
11:55 PM 28.4 °F 24.6 °F 12.2 °F 51% 30.51 in 10.0 mi SW 3.5 mph - N/A   Clear